Location: Godiavel Galaoual
(15.2485°N, 12.6604°W)
Time: 14:54:24
(UTC+00:00)

COSMOS 2455 - Pass Details

Date: 27 February 2020
Orbit: 901 x 909 km, 67.2° (Epoch: 04 April)

Event Time Altitude Azimuth Distance (km) Brightness Sun altitude
Rises 20:25:24 0° 197° (SSW) 3,509 6.2 -21.9°
Reaches altitude 10° 20:27:54 10° 196° (SSW) 2,569 5.4 -22.5°
Maximum altitude 20:33:51 79° 110° (ESE) 918 2.7 -23.9°
Enters shadow 20:36:26 36° 29° (NNE) 1,389 3.5 -24.5°
